Kuiper-00111

operational
NORAD ID: 65149 Int'l Des: 2025-171 Owner: KUIP Country: US Constellation: kuiper
LEOCIRCULAR

Kuiper-00111について

説明を読み込み中...

リアルタイム位置

3D地球を読み込み中...

次回通過

高度履歴

Altitude vs Time

uPlot chart will show altitude changes over time

軌道要素

1 65149U 25171T 25304.83336806 -.00023846 00000-0 -30925-2 0 9998
2 65149 51.8987 22.8830 0009655 57.0952 44.5154 14.80130331 5069
Epoch: Oct 31, 2025 • Age: 14 hours

現在のステータス

高度 650.6 km
速度 7.53 km/s
衛星直下点 -44.32°S, 65.08°E
打ち上げ日 Aug 11, 2025
運用期間 0.2 years
タイプ internet

技術仕様

分類 Payload
質量 490.00 kg
乾燥質量 490.00 kg
総質量 490.00 kg
長さ 1.80 m
直径 0.70 m
スパン 5.00 m
形状 Box + 2 pan
製造者 KUIP
バスタイプ Kuiper
フェーズステータス In Orbit
所有者/国 KUIP/US

大規模コンステレーション

Loading constellations...